Regional Weather Roundup
Issued by NWS Binghamton, NY

Home | Current Version | Previous Version | Text Only | Print | Product List | Glossary On
Versions: 1 2 3 4 5 6 7 8 9 10 11 12 13 14 15 16 17 18 19 20 21 22 23 24 25 26 27 28 29 30 31 32 33 34 35 36 37 38 39 40 41 42 43 44 45 46 47 48 49 50
658
ASUS41 KBGM 130510
RWRBGM

REGIONAL WEATHER ROUNDUP
NATIONAL WEATHER SERVICE BINGHAMTON NY
1200 AM EST TUE NOV 13 2018

Note: "fair" indicates few or no clouds below 12,000 feet with no
significant weather and/or obstructions to visibility.

* = Station(s) that does not report precipitation, such as rain,
snow, etc, also no thunder or fog.

NYZ009-015>018-022>025-036-037-044>046-055>057-062-130600
...Central New York...

CITY           SKY/WX    TMP DP  RH WIND       PRES   REMARKS
Binghamton     LGT SNOW  32  31  96 SE6       30.18F VSB 1   WCI  26
Cortland       CLOUDY    36  32  87 S3        30.19F
Dansville      CLOUDY    37  33  85 S3        30.19F
Elmira         LGT RAIN  38  33  82 SE3       30.19F
Seneca Falls   DRIZZLE   39  34  81 SW6       30.20F WCI  35
Ithaca         LGT RAIN  36  33  89 S6        30.20F WCI  31
Hamilton       MOCLDY    37  27  65 S9        30.20F WCI  31
Hornell        DRIZZLE   34  34 100 CALM      30.20F
Monticello     SNOW      32  30  92 E5        30.25F VSB 1/2 WCI  27
Oneonta        LGT SNOW  34  28  80 CALM      30.20F
Penn Yan       CLOUDY    37  34  89 SW3       30.18F
Rome           CLOUDY    40  29  64 SE6       30.24F
Sidney         LGT RAIN  36  30  80 S3        30.23F
Syracuse       CLOUDY    42  30  62 S5        30.20F
$$

PAZ038>040-043-044-047-048-072-130600
...Northeast Pennsylvania...

CITY           SKY/WX    TMP DP  RH WIND       PRES   REMARKS
Hazleton       RAIN      34  32  93 CALM      30.21F
Scranton       LGT SNOW  34  33  96 CALM      30.23F FOG
$$
&&
KEY
WCI = Wind Chill Index
VSB = Visibility
HX  = Heat Index
$$




USA.gov is the U.S. government's official web portal to all federal, state and local government web resources and services.